�������l�o���
Date,Time,MP-1(��Sv/h),MP-2(��Sv/h),MP-3(��Sv/h),MP-4(��Sv/h),MP-5(��Sv/h),MP-6(��Sv/h),MP-7(��Sv/h),MP-8(��Sv/h),����,����(m/s),���J
2017/02/08,00:00,1.064,1.808,1.169,2.057,1.428,0.560,1.025,0.950,�쐼,2.3,��
2017/02/08,00:10,1.069,1.807,1.168,2.058,1.430,0.559,1.023,0.952,��쐼,2.3,��
2017/02/08,00:20,1.065,1.807,1.167,2.060,1.428,0.560,1.025,0.951,�쐼,4.2,��
2017/02/08,00:30,1.067,1.808,1.170,2.058,1.426,0.559,1.026,0.952,��쐼,3.8,��
2017/02/08,00:40,1.069,1.810,1.167,2.055,1.427,0.561,1.023,0.952,���쐼,3.5,��
2017/02/08,00:50,1.066,1.807,1.170,2.055,1.427,0.560,1.027,0.951,�쐼,3.5,��
2017/02/08,01:00,1.068,1.808,1.169,2.059,1.429,0.560,1.025,0.952,�쐼,3.3,��
2017/02/08,01:10,1.066,1.809,1.165,2.056,1.430,0.561,1.024,0.951,��쐼,1.2,��
2017/02/08,01:20,1.068,1.812,1.168,2.057,1.429,0.560,1.026,0.951,�쐼,2.0,��
2017/02/08,01:30,1.067,1.807,1.169,2.058,1.428,0.560,1.026,0.950,��쐼,2.2,��
2017/02/08,01:40,1.069,1.807,1.168,2.058,1.430,0.560,1.024,0.949,��쐼,3.6,��
2017/02/08,01:50,1.066,1.808,1.169,2.055,1.428,0.560,1.023,0.953,��쐼,3.8,��
2017/02/08,02:00,1.068,1.804,1.170,2.058,1.426,0.559,1.024,0.953,�쐼,3.7,��
2017/02/08,02:10,1.065,1.810,1.168,2.054,1.425,0.560,1.024,0.953,��쐼,3.4,��
2017/02/08,02:20,1.068,1.810,1.170,2.059,1.427,0.559,1.025,0.952,��쐼,3.1,��
2017/02/08,02:30,1.066,1.806,1.168,2.060,1.428,0.561,1.024,0.951,�쐼,1.9,��
2017/02/08,02:40,1.066,1.808,1.169,2.055,1.428,0.561,1.025,0.951,�쐼,1.4,��
2017/02/08,02:50,1.066,1.807,1.170,2.058,1.427,0.559,1.025,0.952,�쐼,1.5,��
2017/02/08,03:00,1.069,1.808,1.170,2.058,1.429,0.560,1.023,0.952,�쐼,2.0,��
2017/02/08,03:10,1.066,1.807,1.169,2.059,1.428,0.560,1.026,0.951,�쐼,2.6,��
2017/02/08,03:20,1.068,1.809,1.168,2.057,1.428,0.560,1.025,0.951,���쐼,2.6,��
2017/02/08,03:30,1.068,1.808,1.166,2.056,1.427,0.558,1.025,0.952,���쐼,1.5,��
2017/02/08,03:40,1.067,1.806,1.168,2.056,1.427,0.560,1.024,0.952,�쐼,0.9,��
2017/02/08,03:50,1.067,1.810,1.168,2.056,1.427,0.558,1.023,0.951,-,CALM,��
2017/02/08,04:00,1.066,1.807,1.168,2.059,1.426,0.559,1.027,0.952,-,CALM,��
2017/02/08,04:10,1.067,1.807,1.167,2.056,1.426,0.561,1.025,0.951,��쐼,0.6,��
2017/02/08,04:20,1.066,1.808,1.167,2.056,1.428,0.558,1.025,0.952,���쐼,1.4,��
2017/02/08,04:30,1.068,1.809,1.168,2.056,1.429,0.561,1.024,0.951,�k��,1.5,��
2017/02/08,04:40,1.070,1.805,1.168,2.056,1.427,0.559,1.023,0.951,�쐼,0.6,��
2017/02/08,04:50,1.069,1.804,1.169,2.057,1.429,0.560,1.025,0.950,��,0.6,��
2017/02/08,05:00,1.069,1.807,1.168,2.055,1.428,0.558,1.024,0.952,��,0.6,��
2017/02/08,05:10,1.065,1.808,1.167,2.056,1.426,0.560,1.025,0.951,-,CALM,��
2017/02/08,05:20,1.067,1.807,1.168,2.056,1.428,0.560,1.024,0.951,���k��,1.2,��
2017/02/08,05:30,1.067,1.809,1.167,2.057,1.427,0.559,1.027,0.953,��,2.2,��
2017/02/08,05:40,1.067,1.805,1.166,2.056,1.425,0.558,1.025,0.950,���k��,3.5,��
2017/02/08,05:50,1.068,1.803,1.165,2.057,1.427,0.560,1.024,0.952,���k��,4.0,��
2017/02/08,06:00,1.068,1.805,1.167,2.056,1.428,0.560,1.023,0.953,��,3.9,��
2017/02/08,06:10,1.066,1.806,1.165,2.059,1.426,0.561,1.026,0.951,��,4.2,��
2017/02/08,06:20,1.066,1.805,1.169,2.055,1.426,0.558,1.024,0.952,��,4.5,��
2017/02/08,06:30,1.067,1.801,1.168,2.053,1.429,0.558,1.024,0.950,��,4.3,��
2017/02/08,06:40,1.068,1.804,1.166,2.056,1.424,0.560,1.027,0.951,��,4.2,��
2017/02/08,06:50,1.065,1.804,1.167,2.056,1.427,0.558,1.026,0.951,��,4.1,��
2017/02/08,07:00,1.068,1.803,1.167,2.056,1.424,0.559,1.024,0.950,��,4.4,��
2017/02/08,07:10,1.065,1.808,1.164,2.056,1.425,0.560,1.024,0.951,��,4.2,��
2017/02/08,07:20,1.066,1.802,1.168,2.055,1.427,0.561,1.026,0.951,���k��,4.2,��
2017/02/08,07:30,1.066,1.806,1.167,2.057,1.427,0.560,1.025,0.950,��,3.8,��
2017/02/08,07:40,1.065,1.804,1.169,2.054,1.425,0.558,1.025,0.950,��,4.5,��
2017/02/08,07:50,1.068,1.800,1.168,2.058,1.427,0.559,1.025,0.952,��,4.2,��
2017/02/08,08:00,1.069,1.803,1.168,2.056,1.427,0.561,1.024,0.950,��,3.9,��
2017/02/08,08:10,1.066,1.801,1.168,2.058,1.428,0.561,1.023,0.951,��,3.2,��
2017/02/08,08:20,1.065,1.802,1.169,2.053,1.428,0.557,1.024,0.951,��,2.2,��
2017/02/08,08:30,1.065,1.804,1.167,2.058,1.425,0.561,1.025,0.953,��,2.0,��
2017/02/08,08:40,1.067,1.803,1.166,2.058,1.425,0.559,1.026,0.952,���쐼,2.5,��
2017/02/08,08:50,1.066,1.803,1.167,2.054,1.425,0.559,1.026,0.951,��,2.3,��
2017/02/08,09:00,1.066,1.801,1.166,2.057,1.426,0.559,1.027,0.952,��,2.3,��
2017/02/08,09:10,1.067,1.800,1.169,2.053,1.429,0.558,1.028,0.953,��,2.6,��
2017/02/08,09:20,1.068,1.802,1.168,2.059,1.426,0.560,1.025,0.950,��,2.5,��
2017/02/08,09:30,1.068,1.803,1.166,2.057,1.428,0.560,1.025,0.952,���k��,3.2,��
2017/02/08,09:40,1.070,1.805,1.168,2.055,1.424,0.561,1.028,0.952,��,3.2,��
2017/02/08,09:50,1.070,1.805,1.166,2.059,1.428,0.559,1.026,0.952,��,3.6,��
2017/02/08,10:00,1.068,1.804,1.167,2.058,1.426,0.559,1.027,0.951,���쐼,3.8,��
2017/02/08,10:10,1.069,1.810,1.169,2.058,1.429,0.558,1.025,0.954,���쐼,4.2,��
2017/02/08,10:20,1.068,1.805,1.173,2.057,1.429,0.560,1.025,0.952,��,5.4,��
2017/02/08,10:30,1.069,1.797,1.170,2.062,1.429,0.562,1.026,0.955,���k��,5.5,��
2017/02/08,10:40,1.068,1.805,1.170,2.060,1.429,0.560,1.023,0.953,���k��,6.3,��
2017/02/08,10:50,1.070,1.802,1.173,2.058,1.428,0.561,1.023,0.953,���k��,6.4,��
2017/02/08,11:00,1.070,1.804,1.172,2.059,1.428,0.560,1.026,0.951,���k��,6.6,��
2017/02/08,11:10,1.071,1.800,1.172,2.063,1.403,0.563,1.026,0.953,���k��,8.3,��
2017/02/08,11:20,1.071,1.803,1.174,2.058,1.424,0.561,1.028,0.953,���k��,7.5,��
2017/02/08,11:30,1.074,1.804,1.174,2.054,1.431,0.562,1.026,0.955,��,9.1,��
2017/02/08,11:40,1.074,1.805,1.170,2.058,1.432,0.563,1.025,0.954,���k��,10.4,��
2017/02/08,11:50,1.076,1.807,1.166,2.063,1.435,0.561,1.027,0.953,���k��,7.9,��
2017/02/08,12:00,1.074,1.808,1.168,2.063,1.432,0.562,1.026,0.954,��,8.0,��
2017/02/08,12:10,1.076,1.808,1.173,2.065,1.431,0.562,1.026,0.954,��,7.5,��
2017/02/08,12:20,1.073,1.805,1.173,2.066,1.431,0.561,1.026,0.955,���k��,9.1,��
2017/02/08,12:30,1.074,1.806,1.173,2.062,1.434,0.563,1.023,0.953,��,6.9,��
2017/02/08,12:40,1.075,1.802,1.172,2.064,1.432,0.562,1.025,0.954,���k��,7.3,��
2017/02/08,12:50,1.075,1.802,1.176,2.063,1.426,0.562,1.025,0.956,���k��,8.4,��
2017/02/08,13:00,1.075,1.803,1.173,2.065,1.431,0.564,1.024,0.953,���k��,8.8,��
2017/02/08,13:10,1.074,1.800,1.176,2.066,1.433,0.562,1.024,0.955,���k��,7.4,��
2017/02/08,13:20,1.076,1.798,1.175,2.066,1.432,0.564,1.026,0.954,���k��,6.6,��
2017/02/08,13:30,1.074,1.788,1.175,2.064,1.433,0.563,1.026,0.953,���k��,5.1,��
2017/02/08,13:40,1.075,1.779,1.176,2.064,1.430,0.564,1.025,0.955,�k��,5.6,��
2017/02/08,13:50,1.074,1.761,1.174,2.066,1.432,0.563,1.024,0.954,���k��,3.8,��
2017/02/08,14:00,1.073,1.772,1.173,2.066,1.433,0.563,1.026,0.953,���k��,4.4,��
2017/02/08,14:10,1.075,1.794,1.174,2.067,1.433,0.561,1.023,0.953,���k��,4.0,��
2017/02/08,14:20,1.077,1.797,1.176,2.064,1.431,0.562,1.027,0.953,���k��,4.8,��
2017/02/08,14:30,1.076,1.789,1.174,2.065,1.432,0.562,1.025,0.953,��,4.8,��
2017/02/08,14:40,1.075,1.793,1.175,2.066,1.433,0.562,1.026,0.954,��,3.8,��
2017/02/08,14:50,1.073,1.795,1.175,2.065,1.430,0.563,1.024,0.955,��,3.5,��
2017/02/08,15:00,1.074,1.793,1.176,2.064,1.431,0.563,1.027,0.954,���쐼,4.3,��
2017/02/08,15:10,1.073,1.792,1.175,2.062,1.432,0.561,1.026,0.954,��,4.7,��
2017/02/08,15:20,1.077,1.796,1.176,2.066,1.437,0.561,1.029,0.952,���k��,3.4,��
2017/02/08,15:30,1.076,1.800,1.174,2.065,1.435,0.562,1.030,0.952,�k��,5.1,��
2017/02/08,15:40,1.075,1.802,1.178,2.062,1.434,0.562,1.028,0.953,�k��,5.7,��
2017/02/08,15:50,1.075,1.805,1.175,2.066,1.435,0.563,1.029,0.952,�k��,6.0,��
2017/02/08,16:00,1.076,1.802,1.176,2.066,1.436,0.560,1.029,0.953,�k��,6.5,��
2017/02/08,16:10,1.076,1.798,1.176,2.068,1.435,0.564,1.028,0.953,�k��,5.7,��
2017/02/08,16:20,1.075,1.803,1.176,2.068,1.434,0.563,1.028,0.953,�k�k��,4.8,��
2017/02/08,16:30,1.076,1.803,1.175,2.066,1.432,0.563,1.028,0.953,�k�k��,4.2,��
2017/02/08,16:40,1.074,1.803,1.176,2.065,1.435,0.562,1.028,0.953,�k�k��,3.5,��
2017/02/08,16:50,1.074,1.801,1.176,2.061,1.435,0.562,1.027,0.955,�k�k��,4.5,��
2017/02/08,17:00,1.074,1.804,1.175,2.063,1.435,0.560,1.027,0.954,�k�k��,5.7,��
2017/02/08,17:10,1.071,1.802,1.174,2.063,1.436,0.562,1.028,0.954,�k�k��,4.9,��
2017/02/08,17:20,1.073,1.801,1.173,2.062,1.433,0.562,1.030,0.953,�k�k��,3.8,��
2017/02/08,17:30,1.071,1.802,1.174,2.061,1.432,0.562,1.028,0.953,�k�k��,4.0,��
2017/02/08,17:40,1.073,1.804,1.174,2.060,1.432,0.562,1.028,0.954,�k�k��,3.8,��
2017/02/08,17:50,1.075,1.803,1.174,2.064,1.432,0.560,1.027,0.952,�k�k��,2.9,��
2017/02/08,18:00,1.072,1.801,1.176,2.063,1.435,0.560,1.026,0.953,�k�k��,3.0,��
2017/02/08,18:10,1.072,1.801,1.174,2.063,1.435,0.561,1.026,0.954,�k�k��,2.3,��
2017/02/08,18:20,1.072,1.799,1.174,2.062,1.434,0.560,1.027,0.953,�k��,2.6,��
2017/02/08,18:30,1.071,1.802,1.174,2.062,1.433,0.562,1.026,0.952,�k��,2.0,��
2017/02/08,18:40,1.073,1.801,1.173,2.060,1.433,0.563,1.026,0.952,���k��,1.5,��
2017/02/08,18:50,1.071,1.798,1.173,2.061,1.433,0.563,1.028,0.951,�k��,1.7,��
2017/02/08,19:00,1.073,1.801,1.173,2.062,1.434,0.561,1.026,0.953,��,1.7,��
2017/02/08,19:10,1.072,1.802,1.174,2.060,1.433,0.562,1.027,0.952,���k��,2.0,��
2017/02/08,19:20,1.071,1.801,1.174,2.062,1.430,0.563,1.026,0.951,��,1.5,��
2017/02/08,19:30,1.072,1.800,1.171,2.063,1.433,0.562,1.026,0.950,���쐼,2.3,��
2017/02/08,19:40,1.073,1.800,1.173,2.060,1.433,0.561,1.027,0.951,��,2.6,��
2017/02/08,19:50,1.072,1.800,1.174,2.062,1.435,0.562,1.025,0.952,���k��,4.2,��
2017/02/08,20:00,1.074,1.803,1.175,2.061,1.430,0.561,1.025,0.953,���k��,4.7,��
2017/02/08,20:10,1.071,1.799,1.173,2.060,1.432,0.561,1.027,0.951,���k��,4.6,��
2017/02/08,20:20,1.072,1.798,1.174,2.063,1.432,0.559,1.026,0.952,���k��,6.2,��
2017/02/08,20:30,1.073,1.800,1.175,2.062,1.430,0.560,1.029,0.954,���k��,6.2,��
2017/02/08,20:40,1.073,1.802,1.172,2.063,1.433,0.561,1.026,0.952,���k��,4.1,��
2017/02/08,20:50,1.069,1.801,1.173,2.061,1.432,0.561,1.027,0.952,��,2.6,��
2017/02/08,21:00,1.073,1.803,1.175,2.062,1.432,0.561,1.028,0.952,���k��,1.9,��
2017/02/08,21:10,1.072,1.803,1.173,2.060,1.431,0.560,1.027,0.952,���k��,3.0,��
2017/02/08,21:20,1.074,1.798,1.174,2.063,1.431,0.560,1.028,0.952,���k��,4.0,��
2017/02/08,21:30,1.071,1.801,1.174,2.063,1.430,0.561,1.026,0.952,���k��,4.1,��
2017/02/08,21:40,1.069,1.799,1.171,2.061,1.431,0.560,1.026,0.951,���k��,4.0,��
2017/02/08,21:50,1.069,1.801,1.174,2.063,1.433,0.561,1.025,0.952,�k��,2.2,��
2017/02/08,22:00,1.070,1.798,1.175,2.062,1.434,0.560,1.027,0.952,�k��,2.2,��
2017/02/08,22:10,1.071,1.800,1.171,2.060,1.432,0.560,1.028,0.951,�k��,2.2,��
2017/02/08,22:20,1.072,1.798,1.170,2.058,1.433,0.560,1.028,0.952,���k��,2.9,��
2017/02/08,22:30,1.071,1.799,1.172,2.063,1.431,0.560,1.026,0.952,�k�k��,1.5,��
2017/02/08,22:40,1.070,1.799,1.173,2.060,1.433,0.561,1.027,0.953,�k�k��,1.7,��
2017/02/08,22:50,1.071,1.797,1.175,2.059,1.433,0.560,1.027,0.953,�k��,2.9,��
2017/02/08,23:00,1.070,1.800,1.172,2.062,1.434,0.561,1.028,0.953,�k�k��,6.9,��
2017/02/08,23:10,1.071,1.801,1.175,2.064,1.431,0.562,1.026,0.954,�k��,8.3,��
2017/02/08,23:20,1.072,1.801,1.173,2.063,1.431,0.561,1.026,0.951,�k��,6.9,��
2017/02/08,23:30,1.073,1.801,1.174,2.065,1.432,0.560,1.028,0.953,�k��,7.3,��
2017/02/08,23:40,1.071,1.800,1.174,2.062,1.429,0.561,1.028,0.952,�k��,9.6,��
2017/02/08,23:50,1.074,1.801,1.174,2.061,1.433,0.562,1.030,0.955,�k��,7.5,��
